| time (UTC) | temp F | wind direction | speed knots | gust knots | rain 1hr in | rain 24hr in | rain mn in | humidity % | barometer mb |
| 20260507060730 | 47 | 0 | 0.0 | 1.7 | 0.00 | 0.00 | 0.00 | 99 | 1013.1 |
| 20260507060227 | 47 | 9 | 0.9 | 2.6 | 0.00 | 0.00 | 0.00 | 99 | 1013.2 |
| 20260507055723 | 47 | 117 | 0.0 | 1.7 | 0.00 | 0.00 | 0.00 | 99 | 1013.2 |
| 20260507055218 | 47 | 129 | 0.0 | 1.7 | 0.00 | 0.00 | 0.00 | 99 | 1013.4 |
| 20260507054714 | 47 | 71 | 2.6 | 2.6 | 0.00 | 0.00 | 0.00 | 99 | 1013.2 |
| 20260507054212 | 47 | 98 | 1.7 | 2.6 | 0.00 | 0.00 | 0.00 | 99 | 1013.1 |
| 20260507053709 | 47 | 164 | 0.0 | 2.6 | 0.00 | 0.00 | 0.00 | 99 | 1012.9 |
| 20260507053207 | 47 | 228 | 0.0 | 1.7 | 0.00 | 0.00 | 0.00 | 99 | 1012.9 |
| 20260507052706 | 47 | 84 | 0.9 | 2.6 | 0.00 | 0.00 | 0.00 | 99 | 1013.2 |
| 20260507052201 | 47 | 103 | 1.7 | 2.6 | 0.00 | 0.00 | 0.00 | 99 | 1012.8 |
| 20260507051659 | 47 | 99 | 1.7 | 2.6 | 0.00 | 0.00 | 0.00 | 99 | 1013.2 |
| 20260507051155 | 47 | 336 | 0.0 | 1.7 | 0.00 | 0.00 | 0.00 | 99 | 1012.9 |
| 20260507050652 | 47 | 104 | 0.0 | 1.7 | 0.00 | 0.00 | 0.00 | 99 | 1013.1 |
| 20260507050149 | 47 | 18 | 0.0 | 1.7 | 0.00 | 0.00 | 0.00 | 99 | 1012.9 |
| 20260507045646 | 47 | 53 | 0.0 | 1.7 | 0.00 | 0.00 | 0.00 | 99 | 1012.9 |
| 20260507045143 | 47 | 75 | 1.7 | 3.5 | 0.00 | 0.00 | 0.00 | 99 | 1013.0 |
| 20260507044640 | 47 | 201 | 1.7 | 1.7 | 0.00 | 0.00 | 0.00 | 99 | 1012.9 |
| 20260507044137 | 47 | 91 | 1.7 | 2.6 | 0.00 | 0.00 | 0.00 | 99 | 1013.0 |
| 20260507043633 | 47 | 129 | 0.0 | 1.7 | 0.00 | 0.00 | 0.00 | 99 | 1012.9 |
| 20260507043130 | 47 | 38 | 0.0 | 1.7 | 0.00 | 0.00 | 0.00 | 99 | 1013.1 |
| 20260507042626 | 47 | 167 | 0.9 | 1.7 | 0.00 | 0.00 | 0.00 | 99 | 1013.1 |
| 20260507042121 | 47 | 54 | 0.9 | 2.6 | 0.00 | 0.00 | 0.00 | 99 | 1013.1 |
| 20260507041618 | 47 | 57 | 0.0 | 1.7 | 0.00 | 0.00 | 0.00 | 99 | 1013.0 |
| 20260507041115 | 47 | 341 | 0.0 | 1.7 | 0.00 | 0.00 | 0.00 | 99 | 1013.0 |
| 20260507040612 | 47 | 263 | 0.0 | 1.7 | 0.00 | 0.00 | 0.00 | 99 | 1013.5 |
| 20260507040108 | 47 | 56 | 0.0 | 1.7 | 0.00 | 0.00 | 0.00 | 99 | 1013.6 |
| 20260507035604 | 47 | 53 | 0.9 | 2.6 | 0.00 | 0.00 | 0.00 | 99 | 1013.4 |
| 20260507035100 | 48 | 106 | 0.0 | 1.7 | 0.00 | 0.00 | 0.00 | 99 | 1013.4 |
| 20260507034557 | 48 | 103 | 1.7 | 1.7 | 0.00 | 0.00 | 0.00 | 99 | 1013.3 |
| 20260507034055 | 48 | 142 | 0.0 | 1.7 | 0.00 | 0.00 | 0.00 | 99 | 1013.3 |
| 20260507033553 | 48 | 51 | 1.7 | 2.6 | 0.00 | 0.00 | 0.00 | 99 | 1013.1 |
| 20260507033050 | 48 | 88 | 1.7 | 2.6 | 0.00 | 0.00 | 0.00 | 99 | 1013.6 |
| 20260507032547 | 48 | 97 | 0.0 | 1.7 | 0.00 | 0.00 | 0.00 | 98 | 1013.2 |
| 20260507032043 | 49 | 71 | 0.0 | 1.7 | 0.00 | 0.00 | 0.00 | 98 | 1013.0 |
| 20260507031540 | 49 | 63 | 2.6 | 2.6 | 0.00 | 0.00 | 0.00 | 98 | 1012.8 |
| 20260507031037 | 49 | 56 | 1.7 | 2.6 | 0.00 | 0.00 | 0.00 | 97 | 1012.4 |
| 20260507030534 | 49 | 279 | 2.6 | 2.6 | 0.00 | 0.00 | 0.00 | 97 | 1012.8 |
| 20260507030032 | 49 | 345 | 0.0 | 1.7 | 0.00 | 0.00 | 0.00 | 96 | 1013.1 |
| 20260507025528 | 49 | 135 | 0.0 | 2.6 | 0.00 | 0.00 | 0.00 | 95 | 1013.2 |
| 20260507025026 | 49 | 267 | 0.0 | 2.6 | 0.00 | 0.00 | 0.00 | 95 | 1013.0 |
| 20260507024523 | 49 | 276 | 1.7 | 2.6 | 0.00 | 0.00 | 0.00 | 95 | 1013.0 |
| 20260507024020 | 49 | 58 | 0.9 | 1.7 | 0.00 | 0.00 | 0.00 | 95 | 1013.1 |
| 20260507023516 | 49 | 48 | 1.7 | 3.5 | 0.00 | 0.00 | 0.00 | 95 | 1013.4 |
| 20260507023014 | 49 | 69 | 2.6 | 2.6 | 0.00 | 0.00 | 0.00 | 95 | 1013.5 |
| 20260507022510 | 49 | 44 | 0.0 | 1.7 | 0.00 | 0.00 | 0.00 | 94 | 1013.5 |
| 20260507022006 | 49 | 59 | 0.9 | 2.6 | 0.00 | 0.00 | 0.00 | 94 | 1013.6 |
| 20260507021502 | 50 | 69 | 0.0 | 2.6 | 0.00 | 0.00 | 0.00 | 95 | 1013.9 |
| 20260507020959 | 49 | 91 | 1.7 | 2.6 | 0.00 | 0.00 | 0.00 | 95 | 1013.5 |
| 20260507020456 | 49 | 356 | 0.0 | 3.5 | 0.00 | 0.00 | 0.00 | 95 | 1013.7 |
| 20260507015952 | 50 | 49 | 0.0 | 1.7 | 0.00 | 0.00 | 0.00 | 94 | 1013.9 |
| 20260507015451 | 50 | 354 | 0.0 | 1.7 | 0.00 | 0.00 | 0.00 | 95 | 1014.1 |
| 20260507014948 | 50 | 77 | 0.0 | 1.7 | 0.00 | 0.00 | 0.00 | 95 | 1013.7 |
| 20260507014444 | 50 | 291 | 0.0 | 1.7 | 0.00 | 0.00 | 0.00 | 95 | 1013.7 |
| 20260507013940 | 50 | 29 | 0.9 | 1.7 | 0.00 | 0.00 | 0.00 | 95 | 1013.8 |
| 20260507013437 | 50 | 42 | 0.0 | 1.7 | 0.00 | 0.00 | 0.00 | 95 | 1014.2 |
| 20260507012935 | 50 | 37 | 0.0 | 1.7 | 0.00 | 0.00 | 0.00 | 95 | 1014.2 |
| 20260507012431 | 50 | 352 | 0.0 | 2.6 | 0.00 | 0.00 | 0.00 | 94 | 1014.0 |
| 20260507011922 | 50 | 44 | 2.6 | 3.5 | 0.00 | 0.00 | 0.00 | 95 | 1013.8 |
| 20260507011419 | 50 | 4 | 1.7 | 2.6 | 0.00 | 0.00 | 0.00 | 94 | 1013.3 |
| 20260507010913 | 50 | 1 | 1.7 | 4.3 | 0.00 | 0.00 | 0.00 | 93 | 1013.6 |
| 20260507010408 | 50 | 242 | 3.5 | 4.3 | 0.00 | 0.00 | 0.00 | 93 | 1013.3 |
| 20260507005906 | 50 | 19 | 0.9 | 3.5 | 0.00 | 0.00 | 0.00 | 93 | 1013.6 |
| 20260507005403 | 50 | 22 | 1.7 | 6.1 | 0.00 | 0.00 | 0.00 | 92 | 1013.5 |
| 20260507004859 | 50 | 272 | 2.6 | 7.8 | 0.00 | 0.00 | 0.00 | 92 | 1013.4 |
| 20260507004356 | 50 | 2 | 1.7 | 5.2 | 0.00 | 0.00 | 0.00 | 94 | 1013.3 |
| 20260507003853 | 50 | 65 | 1.7 | 3.5 | 0.00 | 0.00 | 0.00 | 94 | 1013.2 |
| 20260507003349 | 50 | 275 | 0.9 | 2.6 | 0.00 | 0.00 | 0.00 | 95 | 1013.3 |
| 20260507002844 | 50 | 265 | 0.9 | 2.6 | 0.00 | 0.00 | 0.00 | 95 | 1013.0 |
| 20260507002340 | 50 | 50 | 0.0 | 1.7 | 0.00 | 0.00 | 0.00 | 95 | 1013.1 |
| 20260507001838 | 50 | 264 | 0.0 | 2.6 | 0.00 | 0.00 | 0.00 | 94 | 1013.0 |
| 20260507001334 | 50 | 12 | 1.7 | 3.5 | 0.00 | 0.00 | 0.00 | 94 | 1012.7 |
| 20260507000831 | 50 | 65 | 3.5 | 7.0 | 0.00 | 0.00 | 0.00 | 94 | 1012.7 |
| 20260507000328 | 50 | 312 | 1.7 | 4.3 | 0.00 | 0.00 | 0.00 | 95 | 1012.4 |
| 20260506235823 | 50 | 306 | 0.9 | 6.1 | 0.00 | 0.00 | 0.00 | 95 | 1012.4 |
| 20260506235320 | 50 | 7 | 2.6 | 5.2 | 0.00 | 0.00 | 0.00 | 95 | 1012.1 |
| 20260506234816 | 50 | 357 | 1.7 | 5.2 | 0.00 | 0.00 | 0.00 | 95 | 1012.5 |
| 20260506234314 | 50 | 29 | 2.6 | 3.5 | 0.00 | 0.00 | 0.00 | 95 | 1012.2 |
| 20260506233811 | 50 | 33 | 2.6 | 4.3 | 0.00 | 0.00 | 0.00 | 95 | 1012.1 |
| 20260506233307 | 50 | 277 | 1.7 | 4.3 | 0.00 | 0.00 | 0.00 | 96 | 1012.2 |
| 20260506232804 | 50 | 56 | 2.6 | 7.0 | 0.00 | 0.00 | 0.00 | 96 | 1012.4 |
| 20260506232259 | 50 | 7 | 4.3 | 7.0 | 0.00 | 0.00 | 0.00 | 95 | 1012.4 |
| 20260506231751 | 51 | 5 | 2.6 | 7.0 | 0.00 | 0.00 | 0.00 | 96 | 1012.1 |
| 20260506231250 | 51 | 296 | 4.3 | 6.1 | 0.00 | 0.00 | 0.00 | 95 | 1012.2 |
| 20260506230746 | 51 | 265 | 2.6 | 7.0 | 0.00 | 0.00 | 0.00 | 95 | 1012.0 |
| 20260506230243 | 51 | 20 | 2.6 | 7.0 | 0.00 | 0.00 | 0.00 | 95 | 1011.8 |
| 20260506225740 | 51 | 309 | 2.6 | 4.3 | 0.00 | 0.00 | 0.00 | 95 | 1011.9 |
| 20260506225237 | 51 | 322 | 3.5 | 6.1 | 0.00 | 0.00 | 0.00 | 95 | 1011.9 |
| 20260506224733 | 52 | 350 | 1.7 | 2.6 | 0.00 | 0.00 | 0.00 | 96 | 1011.6 |
| 20260506224231 | 52 | 81 | 0.0 | 2.6 | 0.00 | 0.00 | 0.00 | 95 | 1011.5 |
| 20260506223727 | 52 | 324 | 2.6 | 6.1 | 0.00 | 0.00 | 0.00 | 95 | 1011.4 |
| 20260506223222 | 51 | 333 | 2.6 | 5.2 | 0.00 | 0.00 | 0.00 | 95 | 1011.4 |
| 20260506222719 | 51 | 280 | 5.2 | 7.8 | 0.00 | 0.00 | 0.00 | 95 | 1011.3 |
| 20260506222214 | 51 | 297 | 0.9 | 7.8 | 0.00 | 0.00 | 0.00 | 96 | 1011.1 |
| 20260506221712 | 51 | 27 | 3.5 | 7.0 | 0.00 | 0.00 | 0.00 | 98 | 1010.8 |
| 20260506221210 | 52 | 3 | 2.6 | 5.2 | 0.00 | 0.00 | 0.00 | 99 | 1010.6 |
| 20260506220707 | 52 | 172 | 1.7 | 13.9 | 0.00 | 0.00 | 0.00 | 97 | 1010.3 |
| 20260506220202 | 52 | 340 | 3.5 | 16.5 | 0.00 | 0.00 | 0.00 | 97 | 1010.1 |
| 20260506215659 | 52 | 277 | 6.1 | 13.0 | 0.00 | 0.00 | 0.00 | 98 | 1009.6 |
| 20260506215154 | 52 | 267 | 10.4 | 13.9 | 0.00 | 0.00 | 0.00 | 98 | 1009.5 |
| 20260506214646 | 52 | 122 | 1.7 | 15.6 | 0.00 | 0.00 | 0.00 | 99 | 1009.4 |
| 20260506214143 | 52 | 193 | 1.7 | 20.0 | 0.00 | 0.00 | 0.00 | 99 | 1009.5 |
| 20260506213642 | 53 | 2 | 4.3 | 13.9 | 0.00 | 0.00 | 0.00 | 99 | 1009.2 |
| 20260506213138 | 53 | 329 | 6.1 | 13.9 | 0.00 | 0.00 | 0.00 | 99 | 1009.2 |
| 20260506212635 | 55 | 290 | 5.2 | 14.8 | 0.00 | 0.00 | 0.00 | 98 | 1008.8 |
| 20260506212130 | 57 | 260 | 13.9 | 26.1 | 0.00 | 0.00 | 0.00 | 95 | 1008.9 |
| 20260506211626 | 62 | 138 | 0.0 | 4.3 | 0.00 | 0.00 | 0.00 | 99 | 1008.4 |
| 20260506211123 | 62 | 146 | 3.5 | 6.1 | 0.00 | 0.00 | 0.00 | 99 | 1008.3 |
| 20260506210620 | 62 | 85 | 4.3 | 5.2 | 0.00 | 0.00 | 0.00 | 99 | 1008.2 |
| 20260506210117 | 62 | 31 | 2.6 | 6.1 | 0.00 | 0.00 | 0.00 | 99 | 1008.1 |
| 20260506205614 | 62 | 75 | 3.5 | 6.1 | 0.00 | 0.00 | 0.00 | 99 | 1008.1 |
| 20260506205114 | 61 | 91 | 3.5 | 7.0 | 0.00 | 0.00 | 0.00 | 99 | 1008.1 |
| 20260506204612 | 61 | 68 | 2.6 | 7.0 | 0.00 | 0.00 | 0.00 | 99 | 1008.2 |
| 20260506204109 | 62 | 333 | 0.9 | 6.1 | 0.00 | 0.00 | 0.00 | 98 | 1008.2 |
| 20260506203607 | 62 | 126 | 1.7 | 5.2 | 0.00 | 0.00 | 0.00 | 98 | 1007.9 |
| 20260506203103 | 62 | 78 | 2.6 | 6.1 | 0.00 | 0.00 | 0.00 | 97 | 1008.1 |
| 20260506202601 | 62 | 61 | 3.5 | 7.0 | 0.00 | 0.00 | 0.00 | 97 | 1007.8 |
| 20260506202057 | 63 | 134 | 7.0 | 13.0 | 0.00 | 0.00 | 0.00 | 96 | 1008.0 |
| 20260506201555 | 62 | 140 | 2.6 | 7.8 | 0.00 | 0.00 | 0.00 | 98 | 1007.9 |
| 20260506201051 | 62 | 189 | 4.3 | 7.0 | 0.00 | 0.00 | 0.00 | 98 | 1008.0 |
| 20260506200547 | 62 | 65 | 1.7 | 3.5 | 0.00 | 0.00 | 0.00 | 99 | 1008.1 |
| 20260506200044 | 62 | 57 | 2.6 | 2.6 | 0.00 | 0.00 | 0.00 | 99 | 1008.1 |
| 20260506195541 | 62 | 119 | 2.6 | 5.2 | 0.00 | 0.00 | 0.00 | 99 | 1007.9 |
| 20260506195037 | 61 | 12 | 0.0 | 4.3 | 0.00 | 0.00 | 0.00 | 99 | 1008.2 |
| 20260506194535 | 61 | 92 | 0.9 | 3.5 | 0.00 | 0.00 | 0.00 | 99 | 1008.3 |
| 20260506194031 | 61 | 89 | 0.0 | 3.5 | 0.00 | 0.00 | 0.00 | 99 | 1008.0 |
| 20260506193529 | 61 | 98 | 0.0 | 2.6 | 0.00 | 0.00 | 0.00 | 99 | 1008.3 |
| 20260506193026 | 61 | 282 | 0.0 | 3.5 | 0.00 | 0.00 | 0.00 | 99 | 1008.3 |
| 20260506192523 | 60 | 86 | 0.9 | 2.6 | 0.00 | 0.00 | 0.00 | 99 | 1008.3 |
| 20260506192018 | 61 | 158 | 1.7 | 2.6 | 0.00 | 0.00 | 0.00 | 99 | 1008.3 |
| 20260506191516 | 61 | 84 | 1.7 | 2.6 | 0.00 | 0.00 | 0.00 | 99 | 1008.4 |
| 20260506191012 | 61 | 9 | 0.0 | 4.3 | 0.00 | 0.00 | 0.00 | 99 | 1008.4 |
| 20260506190509 | 61 | 99 | 2.6 | 4.3 | 0.00 | 0.00 | 0.00 | 99 | 1008.4 |
| 20260506190006 | 60 | 123 | 2.6 | 3.5 | 0.00 | 0.00 | 0.00 | 99 | 1008.4 |
| 20260506185503 | 60 | 131 | 0.9 | 3.5 | 0.00 | 0.00 | 0.00 | 99 | 1008.3 |
| 20260506184959 | 60 | 40 | 0.9 | 2.6 | 0.00 | 0.00 | 0.00 | 99 | 1008.4 |
| 20260506184457 | 59 | 91 | 2.6 | 4.3 | 0.00 | 0.00 | 0.00 | 99 | 1008.6 |
| 20260506183954 | 60 | 96 | 1.7 | 2.6 | 0.00 | 0.00 | 0.00 | 99 | 1008.7 |
| 20260506183449 | 59 | 107 | 0.9 | 5.2 | 0.00 | 0.00 | 0.00 | 99 | 1008.8 |
| 20260506182946 | 59 | 130 | 2.6 | 3.5 | 0.00 | 0.00 | 0.00 | 99 | 1008.6 |
| 20260506182444 | 59 | 143 | 0.0 | 2.6 | 0.00 | 0.00 | 0.00 | 99 | 1008.7 |
| 20260506181941 | 59 | 217 | 0.9 | 4.3 | 0.00 | 0.00 | 0.00 | 99 | 1008.7 |
| 20260506181439 | 59 | 147 | 0.9 | 3.5 | 0.00 | 0.00 | 0.00 | 99 | 1008.8 |
| 20260506180935 | 59 | 86 | 0.9 | 2.6 | 0.00 | 0.00 | 0.00 | 99 | 1008.9 |
| 20260506180432 | 59 | 173 | 0.9 | 2.6 | 0.00 | 0.00 | 0.00 | 99 | 1008.8 |
| 20260506175929 | 59 | 356 | 1.7 | 3.5 | 0.00 | 0.00 | 0.00 | 99 | 1008.8 |
| 20260506175425 | 59 | 122 | 2.6 | 3.5 | 0.00 | 0.00 | 0.00 | 99 | 1008.9 |
| 20260506174922 | 59 | 126 | 0.9 | 3.5 | 0.00 | 0.00 | 0.00 | 99 | 1008.8 |
| 20260506174420 | 59 | 142 | 0.9 | 2.6 | 0.00 | 0.00 | 0.00 | 99 | 1008.8 |
| 20260506173917 | 59 | 18 | 0.9 | 2.6 | 0.00 | 0.00 | 0.00 | 99 | 1008.8 |
| 20260506173414 | 59 | 205 | 0.0 | 2.6 | 0.00 | 0.00 | 0.00 | 99 | 1009.0 |
| 20260506172911 | 59 | 115 | 0.0 | 3.5 | 0.00 | 0.00 | 0.00 | 99 | 1008.9 |
| 20260506172407 | 59 | 145 | 1.7 | 3.5 | 0.00 | 0.00 | 0.00 | 99 | 1008.9 |
| 20260506171859 | 59 | 30 | 0.0 | 3.5 | 0.00 | 0.00 | 0.00 | 99 | 1008.8 |
| 20260506171356 | 59 | 347 | 0.0 | 2.6 | 0.00 | 0.00 | 0.00 | 99 | 1009.0 |
| 20260506170853 | 59 | 64 | 0.0 | 2.6 | 0.00 | 0.00 | 0.00 | 99 | 1009.0 |
| 20260506170349 | 59 | 95 | 0.9 | 1.7 | 0.00 | 0.00 | 0.00 | 99 | 1008.8 |
| 20260506165849 | 59 | 297 | 0.0 | 2.6 | 0.00 | 0.00 | 0.00 | 99 | 1008.9 |
| 20260506165346 | 59 | 75 | 0.9 | 3.5 | 0.00 | 0.00 | 0.00 | 99 | 1008.8 |
| 20260506164842 | 59 | 123 | 0.0 | 2.6 | 0.00 | 0.00 | 0.00 | 99 | 1008.9 |
| 20260506164339 | 59 | 260 | 0.0 | 1.7 | 0.00 | 0.00 | 0.00 | 99 | 1008.7 |
| 20260506163837 | 59 | 103 | 0.0 | 2.6 | 0.00 | 0.00 | 0.00 | 99 | 1008.9 |
| 20260506163331 | 59 | 113 | 0.0 | 3.5 | 0.00 | 0.00 | 0.00 | 99 | 1008.7 |
| 20260506162827 | 59 | 100 | 2.6 | 4.3 | 0.00 | 0.00 | 0.00 | 99 | 1008.9 |
| 20260506162325 | 59 | 103 | 0.0 | 1.7 | 0.00 | 0.00 | 0.00 | 99 | 1008.9 |
| 20260506161823 | 59 | 74 | 0.0 | 4.3 | 0.00 | 0.00 | 0.00 | 99 | 1008.9 |
| 20260506161319 | 59 | 120 | 2.6 | 3.5 | 0.00 | 0.00 | 0.00 | 99 | 1008.8 |
| 20260506160812 | 59 | 326 | 0.0 | 2.6 | 0.00 | 0.00 | 0.00 | 99 | 1008.9 |
| 20260506160308 | 59 | 75 | 0.0 | 3.5 | 0.00 | 0.00 | 0.00 | 99 | 1008.9 |
| 20260506155807 | 59 | 210 | 0.0 | 3.5 | 0.00 | 0.00 | 0.00 | 99 | 1009.0 |
| 20260506155306 | 59 | 76 | 0.0 | 1.7 | 0.00 | 0.00 | 0.00 | 99 | 1008.8 |
| 20260506153415 | 59 | 64 | 2.6 | 2.6 | 0.00 | 0.00 | 0.00 | 99 | 1009.1 |
| 20260506152913 | 59 | 155 | 2.6 | 6.1 | 0.00 | 0.00 | 0.00 | 99 | 1009.2 |
| 20260506152409 | 59 | 261 | 0.0 | 3.5 | 0.00 | 0.00 | 0.00 | 99 | 1009.3 |
| 20260506151908 | 59 | 110 | 0.0 | 3.5 | 0.00 | 0.00 | 0.00 | 99 | 1009.3 |
| 20260506151404 | 59 | 145 | 0.9 | 5.2 | 0.00 | 0.00 | 0.00 | 99 | 1009.4 |
| 20260506150902 | 59 | 118 | 1.7 | 5.2 | 0.00 | 0.00 | 0.00 | 99 | 1009.3 |
| 20260506150358 | 59 | 170 | 0.9 | 3.5 | 0.00 | 0.00 | 0.00 | 99 | 1009.2 |
| 20260506145855 | 59 | 237 | 0.0 | 2.6 | 0.00 | 0.00 | 0.00 | 99 | 1009.1 |
| 20260506145351 | 59 | 128 | 1.7 | 2.6 | 0.00 | 0.00 | 0.00 | 99 | 1009.3 |
| 20260506144849 | 59 | 138 | 1.7 | 2.6 | 0.00 | 0.00 | 0.00 | 99 | 1009.2 |
| 20260506144345 | 59 | 184 | 0.9 | 3.5 | 0.00 | 0.00 | 0.00 | 99 | 1008.9 |
| 20260506143844 | 59 | 114 | 11.3 | 11.3 | 0.00 | 0.00 | 0.00 | 99 | 1009.1 |
| 20260506143341 | 59 | 114 | 11.3 | 11.3 | 0.00 | 0.00 | 0.00 | 99 | 1009.0 |
| 20260506142839 | 59 | 92 | 9.6 | 10.4 | 0.00 | 0.00 | 0.00 | 99 | 1009.2 |
| 20260506142337 | 59 | 85 | 3.5 | 7.8 | 0.00 | 0.00 | 0.00 | 99 | 1009.3 |
| 20260506141835 | 59 | 118 | 7.8 | 11.3 | 0.00 | 0.00 | 0.00 | 99 | 1009.3 |
| 20260506141332 | 59 | 75 | 0.9 | 4.3 | 0.00 | 0.00 | 0.00 | 99 | 1009.3 |
| 20260506140830 | 59 | 98 | 0.9 | 5.2 | 0.00 | 0.00 | 0.00 | 99 | 1009.3 |
| 20260506140327 | 58 | 210 | 1.7 | 3.5 | 0.00 | 0.00 | 0.00 | 99 | 1009.3 |
| 20260506135824 | 58 | 37 | 0.0 | 1.7 | 0.00 | 0.00 | 0.00 | 99 | 1009.3 |
| 20260506135320 | 58 | 208 | 0.0 | 1.7 | 0.00 | 0.00 | 0.00 | 99 | 1009.3 |
| 20260506134817 | 58 | 142 | 0.0 | 3.5 | 0.00 | 0.00 | 0.00 | 99 | 1009.3 |
| 20260506134313 | 59 | 98 | 1.7 | 2.6 | 0.00 | 0.00 | 0.00 | 99 | 1009.6 |
| 20260506133810 | 59 | 110 | 0.9 | 2.6 | 0.00 | 0.00 | 0.00 | 99 | 1009.6 |
| 20260506133307 | 59 | 94 | 0.9 | 3.5 | 0.00 | 0.00 | 0.00 | 99 | 1009.8 |
| 20260506132804 | 59 | 130 | 0.0 | 1.7 | 0.00 | 0.00 | 0.00 | 99 | 1009.8 |
| 20260506132301 | 59 | 59 | 0.0 | 1.7 | 0.00 | 0.00 | 0.00 | 99 | 1009.7 |
| 20260506131759 | 59 | 27 | 0.9 | 1.7 | 0.00 | 0.00 | 0.00 | 99 | 1009.7 |
| 20260506131255 | 59 | 93 | 0.9 | 1.7 | 0.00 | 0.00 | 0.00 | 99 | 1009.8 |
| 20260506130752 | 59 | 93 | 0.9 | 2.6 | 0.00 | 0.00 | 0.00 | 99 | 1010.1 |
| 20260506130249 | 59 | 113 | 1.7 | 3.5 | 0.00 | 0.00 | 0.00 | 98 | 1010.1 |
| 20260506125747 | 59 | 78 | 2.6 | 4.3 | 0.00 | 0.00 | 0.00 | 97 | 1010.2 |
| 20260506125244 | 59 | 114 | 1.7 | 4.3 | 0.00 | 0.00 | 0.00 | 96 | 1010.1 |
| 20260506124743 | 60 | 111 | 2.6 | 7.0 | 0.00 | 0.00 | 0.00 | 94 | 1010.2 |
| 20260506124240 | 60 | 127 | 0.0 | 4.3 | 0.00 | 0.00 | 0.00 | 92 | 1010.1 |
| 20260506123737 | 60 | 89 | 1.7 | 5.2 | 0.00 | 0.00 | 0.00 | 90 | 1009.9 |
| 20260506123236 | 61 | 51 | 0.9 | 5.2 | 0.00 | 0.00 | 0.00 | 89 | 1009.8 |
| 20260506122732 | 61 | 109 | 2.6 | 7.8 | 0.00 | 0.00 | 0.00 | 89 | 1009.9 |
| 20260506122229 | 62 | 5 | 0.9 | 13.0 | 0.00 | 0.00 | 0.00 | 85 | 1009.5 |
| 20260506121728 | 63 | 41 | 0.9 | 8.7 | 0.00 | 0.00 | 0.00 | 82 | 1009.6 |
| 20260506121224 | 64 | 135 | 7.8 | 10.4 | 0.00 | 0.00 | 0.00 | 78 | 1009.4 |
| 20260506120722 | 63 | 95 | 7.0 | 8.7 | 0.00 | 0.00 | 0.00 | 79 | 1009.0 |
| 20260506120219 | 64 | 105 | 3.5 | 9.6 | 0.00 | 0.00 | 0.00 | 79 | 1009.3 |
| 20260506115717 | 65 | 105 | 3.5 | 7.0 | 0.00 | 0.00 | 0.00 | 75 | 1009.3 |
| 20260506115215 | 65 | 75 | 2.6 | 6.1 | 0.00 | 0.00 | 0.00 | 74 | 1009.4 |
| 20260506114712 | 65 | 100 | 2.6 | 11.3 | 0.00 | 0.00 | 0.00 | 72 | 1009.4 |
| 20260506114210 | 65 | 54 | 2.6 | 7.8 | 0.00 | 0.00 | 0.00 | 72 | 1009.4 |
| 20260506113708 | 65 | 51 | 0.0 | 5.2 | 0.00 | 0.00 | 0.00 | 73 | 1009.4 |
| 20260506113205 | 65 | 36 | 1.7 | 7.0 | 0.00 | 0.00 | 0.00 | 72 | 1009.4 |
| 20260506112701 | 65 | 106 | 2.6 | 6.1 | 0.00 | 0.00 | 0.00 | 72 | 1009.4 |
| 20260506112159 | 65 | 62 | 1.7 | 9.6 | 0.00 | 0.00 | 0.00 | 71 | 1009.4 |
| 20260506111656 | 64 | 101 | 3.5 | 7.0 | 0.00 | 0.00 | 0.00 | 73 | 1009.2 |
| 20260506111154 | 63 | 54 | 1.7 | 2.6 | 0.00 | 0.00 | 0.00 | 74 | 1009.2 |
| 20260506110651 | 63 | 96 | 1.7 | 2.6 | 0.00 | 0.00 | 0.00 | 75 | 1009.2 |
| 20260506110149 | 63 | 65 | 3.5 | 3.5 | 0.00 | 0.00 | 0.00 | 74 | 1009.1 |
| 20260506105645 | 63 | 66 | 0.9 | 1.7 | 0.00 | 0.00 | 0.00 | 73 | 1008.9 |
| 20260506105142 | 64 | 86 | 0.9 | 1.7 | 0.00 | 0.00 | 0.00 | 73 | 1009.1 |
| 20260506104640 | 64 | 42 | 0.0 | 1.7 | 0.00 | 0.00 | 0.00 | 72 | 1009.1 |
| 20260506104137 | 64 | 52 | 0.0 | 2.6 | 0.00 | 0.00 | 0.00 | 73 | 1009.0 |
| 20260506103634 | 64 | 233 | 0.9 | 1.7 | 0.00 | 0.00 | 0.00 | 71 | 1009.0 |
| 20260506103131 | 64 | 142 | 0.0 | 1.7 | 0.00 | 0.00 | 0.00 | 70 | 1008.6 |
| 20260506102629 | 64 | 69 | 1.7 | 2.6 | 0.00 | 0.00 | 0.00 | 70 | 1008.6 |
| 20260506102126 | 64 | 121 | 0.9 | 2.6 | 0.00 | 0.00 | 0.00 | 69 | 1008.6 |
| 20260506101623 | 64 | 69 | 1.7 | 2.6 | 0.00 | 0.00 | 0.00 | 69 | 1008.6 |
| 20260506101120 | 64 | 53 | 1.7 | 3.5 | 0.00 | 0.00 | 0.00 | 69 | 1008.6 |
| 20260506100618 | 64 | 128 | 0.0 | 2.6 | 0.00 | 0.00 | 0.00 | 70 | 1008.6 |
| 20260506100116 | 64 | 168 | 0.0 | 5.2 | 0.00 | 0.00 | 0.00 | 69 | 1008.5 |
| 20260506095615 | 62 | 126 | 0.0 | 1.7 | 0.00 | 0.00 | 0.00 | 71 | 1008.6 |
| 20260506095111 | 62 | 126 | 0.9 | 2.6 | 0.00 | 0.00 | 0.00 | 71 | 1008.6 |
| 20260506094608 | 61 | 105 | 0.9 | 1.7 | 0.00 | 0.00 | 0.00 | 74 | 1008.7 |
| 20260506094106 | 61 | 117 | 0.0 | 1.7 | 0.00 | 0.00 | 0.00 | 74 | 1008.9 |
| 20260506093604 | 61 | 72 | 0.9 | 2.6 | 0.00 | 0.00 | 0.00 | 76 | 1008.8 |
| 20260506093101 | 61 | 82 | 0.9 | 2.6 | 0.00 | 0.00 | 0.00 | 75 | 1008.8 |
| 20260506092559 | 61 | 211 | 0.9 | 2.6 | 0.00 | 0.00 | 0.00 | 74 | 1008.8 |
| 20260506092055 | 61 | 117 | 1.7 | 4.3 | 0.00 | 0.00 | 0.00 | 76 | 1008.6 |
| 20260506091554 | 60 | 155 | 0.0 | 3.5 | 0.00 | 0.00 | 0.00 | 79 | 1008.8 |
| 20260506091051 | 60 | 203 | 0.0 | 2.6 | 0.00 | 0.00 | 0.00 | 79 | 1008.8 |
| 20260506090549 | 59 | 354 | 0.9 | 1.7 | 0.00 | 0.00 | 0.00 | 82 | 1008.9 |
| 20260506090045 | 59 | 105 | 1.7 | 2.6 | 0.00 | 0.00 | 0.00 | 82 | 1008.9 |
| 20260506085542 | 59 | 78 | 0.9 | 1.7 | 0.00 | 0.00 | 0.00 | 81 | 1009.0 |
| 20260506085038 | 59 | 104 | 0.0 | 1.7 | 0.00 | 0.00 | 0.00 | 80 | 1008.8 |
| 20260506084535 | 60 | 114 | 0.9 | 2.6 | 0.00 | 0.00 | 0.00 | 79 | 1008.8 |
| 20260506084031 | 59 | 168 | 1.7 | 3.5 | 0.00 | 0.00 | 0.00 | 77 | 1009.0 |
| 20260506083529 | 59 | 75 | 0.9 | 1.7 | 0.00 | 0.00 | 0.00 | 78 | 1008.8 |
| 20260506083026 | 59 | 96 | 2.6 | 2.6 | 0.00 | 0.00 | 0.00 | 78 | 1009.1 |
| 20260506082523 | 59 | 155 | 0.0 | 1.7 | 0.00 | 0.00 | 0.00 | 78 | 1009.1 |
| 20260506082018 | 60 | 54 | 0.0 | 1.7 | 0.00 | 0.00 | 0.00 | 78 | 1008.9 |
| 20260506081517 | 60 | 132 | 0.0 | 2.6 | 0.00 | 0.00 | 0.00 | 76 | 1008.9 |
| 20260506081014 | 60 | 206 | 1.7 | 3.5 | 0.00 | 0.00 | 0.00 | 73 | 1008.9 |
| 20260506080511 | 60 | 81 | 1.7 | 2.6 | 0.00 | 0.00 | 0.00 | 75 | 1008.9 |
| 20260506073455 | 59 | 106 | 0.0 | 1.7 | 0.00 | 0.00 | 0.00 | 79 | 1008.8 |
| 20260506072952 | 60 | 110 | 1.7 | 2.6 | 0.00 | 0.00 | 0.00 | 79 | 1008.9 |
| 20260506072449 | 60 | 50 | 0.0 | 2.6 | 0.00 | 0.00 | 0.00 | 75 | 1009.1 |
| 20260506071947 | 60 | 75 | 0.9 | 2.6 | 0.00 | 0.00 | 0.00 | 77 | 1009.0 |
| 20260506071445 | 60 | 157 | 0.0 | 0.9 | 0.00 | 0.00 | 0.00 | 79 | 1009.0 |
| 20260506070941 | 60 | 65 | 0.0 | 1.7 | 0.00 | 0.00 | 0.00 | 77 | 1009.2 |
| 20260506070438 | 60 | 37 | 0.0 | 1.7 | 0.00 | 0.00 | 0.00 | 75 | 1009.5 |
| 20260506062416 | 60 | 138 | 0.0 | 1.7 | 0.00 | 0.00 | 0.00 | 68 | 1009.5 |
| 20260506061911 | 59 | 140 | 0.0 | 0.9 | 0.00 | 0.00 | 0.00 | 71 | 1009.5 |
| 20260506061408 | 59 | 88 | 0.9 | 1.7 | 0.00 | 0.00 | 0.00 | 73 | 1009.6 |
| 20260506060906 | 60 | 127 | 0.0 | 1.7 | 0.00 | 0.00 | 0.00 | 74 | 1009.7 |